Year,Month,Day,Hour,Minute,Value (Times are PST for temperature in C)
2010,03,25,00,00,8.90
2010,03,25,00,01,8.90
2010,03,25,00,02,8.90
2010,03,25,00,03,8.90
2010,03,25,00,04,8.90
2010,03,25,00,05,8.80
2010,03,25,00,06,8.80
2010,03,25,00,07,8.80
2010,03,25,00,08,8.70
2010,03,25,00,09,8.70
2010,03,25,00,10,8.70
2010,03,25,00,11,8.70
2010,03,25,00,12,8.60
2010,03,25,00,13,8.60
2010,03,25,00,14,8.60
2010,03,25,00,15,8.60
2010,03,25,00,16,8.50
2010,03,25,00,17,8.50
2010,03,25,00,18,8.50
2010,03,25,00,19,8.40
2010,03,25,00,20,8.40
2010,03,25,00,21,8.40
2010,03,25,00,22,8.40
2010,03,25,00,23,8.30
2010,03,25,00,24,8.30
2010,03,25,00,25,8.30
2010,03,25,00,26,8.30
2010,03,25,00,27,8.30
2010,03,25,00,28,8.30
2010,03,25,00,29,8.30
2010,03,25,00,30,8.30
2010,03,25,00,31,8.30
2010,03,25,00,32,8.30
2010,03,25,00,33,8.30
2010,03,25,00,34,8.30
2010,03,25,00,35,8.30
2010,03,25,00,36,8.30
2010,03,25,00,37,8.20
2010,03,25,00,38,8.20
2010,03,25,00,39,8.20
2010,03,25,00,40,8.20
2010,03,25,00,41,8.10
2010,03,25,00,42,8.10
2010,03,25,00,43,8.10
2010,03,25,00,44,8.00
2010,03,25,00,45,8.00
2010,03,25,00,46,8.00
2010,03,25,00,47,8.00
2010,03,25,00,48,8.00
2010,03,25,00,49,8.00
2010,03,25,00,50,8.00
2010,03,25,00,51,8.00
2010,03,25,00,52,8.00
2010,03,25,00,53,8.00
2010,03,25,00,54,8.00
2010,03,25,00,55,8.00
2010,03,25,00,56,7.90
2010,03,25,00,57,7.90
2010,03,25,00,58,7.90
2010,03,25,00,59,7.90
2010,03,25,01,00,7.90
2010,03,25,01,01,7.90
2010,03,25,01,02,7.90
2010,03,25,01,03,7.90
2010,03,25,01,04,7.90
2010,03,25,01,05,7.90
2010,03,25,01,06,7.90
2010,03,25,01,07,7.90
2010,03,25,01,08,7.90
2010,03,25,01,09,7.90
2010,03,25,01,10,7.90
2010,03,25,01,11,7.90
2010,03,25,01,12,8.00
2010,03,25,01,13,8.00
2010,03,25,01,14,8.00
2010,03,25,01,15,8.10
2010,03,25,01,16,8.10
2010,03,25,01,17,8.10
2010,03,25,01,18,8.10
2010,03,25,01,19,8.10
2010,03,25,01,20,8.10
2010,03,25,01,21,8.20
2010,03,25,01,22,8.20
2010,03,25,01,23,8.20
2010,03,25,01,24,8.20
2010,03,25,01,25,8.20
2010,03,25,01,26,8.20
2010,03,25,01,27,8.10
2010,03,25,01,28,8.10
2010,03,25,01,29,8.10
2010,03,25,01,30,8.10
2010,03,25,01,31,8.10
2010,03,25,01,32,8.10
2010,03,25,01,33,8.00
2010,03,25,01,34,8.00
2010,03,25,01,35,8.00
2010,03,25,01,36,8.00
2010,03,25,01,37,8.00
2010,03,25,01,38,7.90
2010,03,25,01,39,7.90
2010,03,25,01,40,7.90
2010,03,25,01,41,7.90
2010,03,25,01,42,7.90
2010,03,25,01,43,7.80
2010,03,25,01,44,7.80
2010,03,25,01,45,7.80
2010,03,25,01,46,7.80
2010,03,25,01,47,7.80
2010,03,25,01,48,7.80
2010,03,25,01,49,7.80
2010,03,25,01,50,7.80
2010,03,25,01,51,7.80
2010,03,25,01,52,7.80
2010,03,25,01,53,7.80
2010,03,25,01,54,7.80
2010,03,25,01,55,7.80
2010,03,25,01,56,7.80
2010,03,25,01,57,7.80
2010,03,25,01,58,7.80
2010,03,25,01,59,7.80
2010,03,25,02,00,7.80
2010,03,25,02,01,7.80
2010,03,25,02,02,7.80
2010,03,25,02,03,7.80
2010,03,25,02,04,7.80
2010,03,25,02,05,7.80
2010,03,25,02,06,7.80
2010,03,25,02,07,7.80
2010,03,25,02,08,7.80
2010,03,25,02,09,7.80
2010,03,25,02,10,7.80
2010,03,25,02,11,7.80
2010,03,25,02,12,7.80
2010,03,25,02,13,7.80
2010,03,25,02,14,7.80
2010,03,25,02,15,7.80
2010,03,25,02,16,7.80
2010,03,25,02,17,7.80
2010,03,25,02,18,7.80
2010,03,25,02,19,7.80
2010,03,25,02,20,7.80
2010,03,25,02,21,7.80
2010,03,25,02,22,7.70
2010,03,25,02,23,7.70
2010,03,25,02,24,7.70
2010,03,25,02,25,7.70
2010,03,25,02,26,7.70
2010,03,25,02,27,7.70
2010,03,25,02,28,7.70
2010,03,25,02,29,7.70
2010,03,25,02,30,7.70
2010,03,25,02,31,7.70
2010,03,25,02,32,7.60
2010,03,25,02,33,7.60
2010,03,25,02,34,7.60
2010,03,25,02,35,7.70
2010,03,25,02,36,7.70
2010,03,25,02,37,7.70
2010,03,25,02,38,7.70
2010,03,25,02,39,7.70
2010,03,25,02,40,7.70
2010,03,25,02,41,7.70
2010,03,25,02,42,7.70
2010,03,25,02,43,7.70
2010,03,25,02,44,7.70
2010,03,25,02,45,7.70
2010,03,25,02,46,7.70
2010,03,25,02,47,7.70
2010,03,25,02,48,7.70
2010,03,25,02,49,7.70
2010,03,25,02,50,7.70
2010,03,25,02,51,7.60
2010,03,25,02,52,7.60
2010,03,25,02,53,7.60
2010,03,25,02,54,7.60
2010,03,25,02,55,7.60
2010,03,25,02,56,7.60
2010,03,25,02,57,7.60
2010,03,25,02,58,7.60
2010,03,25,02,59,7.60
2010,03,25,03,00,7.50
2010,03,25,03,01,7.50
2010,03,25,03,02,7.50
2010,03,25,03,03,7.50
2010,03,25,03,04,7.50
2010,03,25,03,05,7.50
2010,03,25,03,06,7.50
2010,03,25,03,07,7.50
2010,03,25,03,08,7.50
2010,03,25,03,09,7.60
2010,03,25,03,10,7.50
2010,03,25,03,11,7.50
2010,03,25,03,12,7.50
2010,03,25,03,13,7.50
2010,03,25,03,14,7.50
2010,03,25,03,15,7.50
2010,03,25,03,16,7.50
2010,03,25,03,17,7.50
2010,03,25,03,18,7.50
2010,03,25,03,19,7.50
2010,03,25,03,20,7.50
2010,03,25,03,21,7.50
2010,03,25,03,22,7.50
2010,03,25,03,23,7.50
2010,03,25,03,24,7.50
2010,03,25,03,25,7.50
2010,03,25,03,26,7.50
2010,03,25,03,27,7.60
2010,03,25,03,28,7.60
2010,03,25,03,29,7.60
2010,03,25,03,30,7.60
2010,03,25,03,31,7.60
2010,03,25,03,32,7.60
2010,03,25,03,33,7.60
2010,03,25,03,34,7.60
2010,03,25,03,35,7.60
2010,03,25,03,36,7.70
2010,03,25,03,37,7.70
2010,03,25,03,38,7.70
2010,03,25,03,39,7.70
2010,03,25,03,40,7.70
2010,03,25,03,41,7.70
2010,03,25,03,42,7.70
2010,03,25,03,43,7.70
2010,03,25,03,44,7.70
2010,03,25,03,45,7.70
2010,03,25,03,46,7.70
2010,03,25,03,47,7.70
2010,03,25,03,48,7.70
2010,03,25,03,49,7.70
2010,03,25,03,50,7.70
2010,03,25,03,51,7.70
2010,03,25,03,52,7.70
2010,03,25,03,53,7.70
2010,03,25,03,54,7.70
2010,03,25,03,55,7.70
2010,03,25,03,56,7.70
2010,03,25,03,57,7.70
2010,03,25,03,58,7.70
2010,03,25,03,59,7.70
2010,03,25,04,00,7.70
2010,03,25,04,01,7.70
2010,03,25,04,02,7.70
2010,03,25,04,03,7.70
2010,03,25,04,04,7.70
2010,03,25,04,05,7.70
2010,03,25,04,06,7.70
2010,03,25,04,07,7.70
2010,03,25,04,08,7.70
2010,03,25,04,09,7.70
2010,03,25,04,10,7.70
2010,03,25,04,11,7.60
2010,03,25,04,12,7.70
2010,03,25,04,13,7.70
2010,03,25,04,14,7.70
2010,03,25,04,15,7.70
2010,03,25,04,16,7.70
2010,03,25,04,17,7.60
2010,03,25,04,18,7.70
2010,03,25,04,19,7.60
2010,03,25,04,20,7.60
2010,03,25,04,21,7.60
2010,03,25,04,22,7.60
2010,03,25,04,23,7.70
2010,03,25,04,24,7.70
2010,03,25,04,25,7.70
2010,03,25,04,26,7.70
2010,03,25,04,27,7.70
2010,03,25,04,28,7.70
2010,03,25,04,29,7.70
2010,03,25,04,30,7.70
2010,03,25,04,31,7.70
2010,03,25,04,32,7.70
2010,03,25,04,33,7.70
2010,03,25,04,34,7.70
2010,03,25,04,35,7.70
2010,03,25,04,36,7.70
2010,03,25,04,37,7.70
2010,03,25,04,38,7.70
2010,03,25,04,39,7.70
2010,03,25,04,40,7.70
2010,03,25,04,41,7.70
2010,03,25,04,42,7.70
2010,03,25,04,43,7.70
2010,03,25,04,44,7.70
2010,03,25,04,45,7.70
2010,03,25,04,46,7.70
2010,03,25,04,47,7.70
2010,03,25,04,48,7.70
2010,03,25,04,49,7.70
2010,03,25,04,50,7.70
2010,03,25,04,51,7.70
2010,03,25,04,52,7.70
2010,03,25,04,53,7.70
2010,03,25,04,54,7.70
2010,03,25,04,55,7.70
2010,03,25,04,56,7.70
2010,03,25,04,57,7.70
2010,03,25,04,58,7.80
2010,03,25,04,59,7.80
2010,03,25,05,00,7.80
2010,03,25,05,01,7.80
2010,03,25,05,02,7.90
2010,03,25,05,03,7.90
2010,03,25,05,04,7.90
2010,03,25,05,05,7.90
2010,03,25,05,06,7.90
2010,03,25,05,07,8.00
2010,03,25,05,08,8.00
2010,03,25,05,09,8.10
2010,03,25,05,10,8.10
2010,03,25,05,11,8.10
2010,03,25,05,12,8.10
2010,03,25,05,13,8.10
2010,03,25,05,14,8.20
2010,03,25,05,15,8.20
2010,03,25,05,16,8.20
2010,03,25,05,17,8.20
2010,03,25,05,18,8.20
2010,03,25,05,19,8.20
2010,03,25,05,20,8.20
2010,03,25,05,21,8.20
2010,03,25,05,22,8.20
2010,03,25,05,23,8.10
2010,03,25,05,24,8.10
2010,03,25,05,25,8.10
2010,03,25,05,26,8.10
2010,03,25,05,27,8.10
2010,03,25,05,28,8.10
2010,03,25,05,29,8.00
2010,03,25,05,30,8.00
2010,03,25,05,31,8.10
2010,03,25,05,32,8.00
2010,03,25,05,33,8.10
2010,03,25,05,34,8.10
2010,03,25,05,35,8.10
2010,03,25,05,36,8.10
2010,03,25,05,37,8.10
2010,03,25,05,38,8.10
2010,03,25,05,39,8.00
2010,03,25,05,40,8.00
2010,03,25,05,41,8.00
2010,03,25,05,42,8.00
2010,03,25,05,43,8.00
2010,03,25,05,44,8.00
2010,03,25,05,45,8.00
2010,03,25,05,46,8.00
2010,03,25,05,47,8.00
2010,03,25,05,48,8.00
2010,03,25,05,49,8.00
2010,03,25,05,50,8.00
2010,03,25,05,51,8.00
2010,03,25,05,52,8.00
2010,03,25,05,53,8.00
2010,03,25,05,54,8.00
2010,03,25,05,55,8.00
2010,03,25,05,56,8.00
2010,03,25,05,57,8.00
2010,03,25,05,58,8.00
2010,03,25,05,59,8.00
2010,03,25,06,00,8.00
2010,03,25,06,01,8.00
2010,03,25,06,02,8.00
2010,03,25,06,03,8.00
2010,03,25,06,04,8.00
2010,03,25,06,05,8.00
2010,03,25,06,06,8.00
2010,03,25,06,07,8.00
2010,03,25,06,08,8.00
2010,03,25,06,09,8.00
2010,03,25,06,10,8.00
2010,03,25,06,11,8.00
2010,03,25,06,12,8.00
2010,03,25,06,13,8.00
2010,03,25,06,14,8.00
2010,03,25,06,15,8.00
2010,03,25,06,16,8.00
2010,03,25,06,17,8.00
2010,03,25,06,18,8.00
2010,03,25,06,19,8.10
2010,03,25,06,20,8.10
2010,03,25,06,21,8.10
2010,03,25,06,22,8.10
2010,03,25,06,23,8.10
2010,03,25,06,24,8.10
2010,03,25,06,25,8.10
2010,03,25,06,26,8.10
2010,03,25,06,27,8.10
2010,03,25,06,28,8.10
2010,03,25,06,29,8.10
2010,03,25,06,30,8.10
2010,03,25,06,31,8.10
2010,03,25,06,32,8.10
2010,03,25,06,33,8.10
2010,03,25,06,34,8.10
2010,03,25,06,35,8.10
2010,03,25,06,36,8.10
2010,03,25,06,37,8.10
2010,03,25,06,38,8.10
2010,03,25,06,39,8.10
2010,03,25,06,40,8.10
2010,03,25,06,41,8.10
2010,03,25,06,42,8.10
2010,03,25,06,43,8.10
2010,03,25,06,44,8.10
2010,03,25,06,45,8.10
2010,03,25,06,46,8.10
2010,03,25,06,47,8.10
2010,03,25,06,48,8.10
2010,03,25,06,49,8.10
2010,03,25,06,50,8.10
2010,03,25,06,51,8.20
2010,03,25,06,52,8.20
2010,03,25,06,53,8.20
2010,03,25,06,54,8.20
2010,03,25,06,55,8.20
2010,03,25,06,56,8.20
2010,03,25,06,57,8.20
2010,03,25,06,58,8.20
2010,03,25,06,59,8.20
2010,03,25,07,00,8.20
2010,03,25,07,01,8.20
2010,03,25,07,02,8.20
2010,03,25,07,03,8.20
2010,03,25,07,04,8.20
2010,03,25,07,05,8.20
2010,03,25,07,06,8.30
2010,03,25,07,07,8.30
2010,03,25,07,08,8.30
2010,03,25,07,09,8.30
2010,03,25,07,10,8.30
2010,03,25,07,11,8.30
2010,03,25,07,12,8.30
2010,03,25,07,13,8.30
2010,03,25,07,14,8.30
2010,03,25,07,15,8.30
2010,03,25,07,16,8.30
2010,03,25,07,17,8.30
2010,03,25,07,18,8.30
2010,03,25,07,19,8.30
2010,03,25,07,20,8.30
2010,03,25,07,21,8.30
2010,03,25,07,22,8.30
2010,03,25,07,23,8.30
2010,03,25,07,24,8.30
2010,03,25,07,25,8.30
2010,03,25,07,26,8.30
2010,03,25,07,27,8.40
2010,03,25,07,28,8.40
2010,03,25,07,29,8.40
2010,03,25,07,30,8.40
2010,03,25,07,31,8.40
2010,03,25,07,32,8.40
2010,03,25,07,33,8.40
2010,03,25,07,34,8.40
2010,03,25,07,35,8.40
2010,03,25,07,36,8.40
2010,03,25,07,37,8.40
2010,03,25,07,38,8.50
2010,03,25,07,39,8.50
2010,03,25,07,40,8.50
2010,03,25,07,41,8.50
2010,03,25,07,42,8.50
2010,03,25,07,43,8.50
2010,03,25,07,44,8.50
2010,03,25,07,45,8.50
2010,03,25,07,46,8.50
2010,03,25,07,47,8.50
2010,03,25,07,48,8.50
2010,03,25,07,49,8.50
2010,03,25,07,50,8.50
2010,03,25,07,51,8.50
2010,03,25,07,52,8.50
2010,03,25,07,53,8.50
2010,03,25,07,54,8.60
2010,03,25,07,55,8.60
2010,03,25,07,56,8.60
2010,03,25,07,57,8.50
2010,03,25,07,58,8.60
2010,03,25,07,59,8.60
2010,03,25,08,00,8.60
2010,03,25,08,01,8.60
2010,03,25,08,02,8.60
2010,03,25,08,03,8.60
2010,03,25,08,04,8.60
2010,03,25,08,05,8.60
2010,03,25,08,06,8.60
2010,03,25,08,07,8.60
2010,03,25,08,08,8.60
2010,03,25,08,09,8.60
2010,03,25,08,10,8.60
2010,03,25,08,11,8.60
2010,03,25,08,12,8.60
2010,03,25,08,13,8.60
2010,03,25,08,14,8.60
2010,03,25,08,15,8.60
2010,03,25,08,16,8.60
2010,03,25,08,17,8.60
2010,03,25,08,18,8.60
2010,03,25,08,19,8.60
2010,03,25,08,20,8.60
2010,03,25,08,21,8.60
2010,03,25,08,22,8.60
2010,03,25,08,23,8.60
2010,03,25,08,24,8.60
2010,03,25,08,25,8.60
2010,03,25,08,26,8.60
2010,03,25,08,27,8.60
2010,03,25,08,28,8.60
2010,03,25,08,29,8.60
2010,03,25,08,30,8.60
2010,03,25,08,31,8.60
2010,03,25,08,32,8.60
2010,03,25,08,33,8.60
2010,03,25,08,34,8.60
2010,03,25,08,35,8.60
2010,03,25,08,36,8.60
2010,03,25,08,37,8.60
2010,03,25,08,38,8.60
2010,03,25,08,39,8.70
2010,03,25,08,40,8.60
2010,03,25,08,41,8.70
2010,03,25,08,42,8.70
2010,03,25,08,43,8.70
2010,03,25,08,44,8.70
2010,03,25,08,45,8.70
2010,03,25,08,46,8.70
2010,03,25,08,47,8.70
2010,03,25,08,48,8.70
2010,03,25,08,49,8.70
2010,03,25,08,50,8.70
2010,03,25,08,51,8.70
2010,03,25,08,52,8.70
2010,03,25,08,53,8.70
2010,03,25,08,54,8.70
2010,03,25,08,55,8.70
2010,03,25,08,56,8.70
2010,03,25,08,57,8.70
2010,03,25,08,58,8.70
2010,03,25,08,59,8.70
2010,03,25,09,00,8.70
2010,03,25,09,01,8.70
2010,03,25,09,02,8.70
2010,03,25,09,03,8.70
2010,03,25,09,04,8.70
2010,03,25,09,05,8.70
2010,03,25,09,06,8.80
2010,03,25,09,07,8.80
2010,03,25,09,08,8.80
2010,03,25,09,09,8.80
2010,03,25,09,10,8.80
2010,03,25,09,11,8.80
2010,03,25,09,12,8.80
2010,03,25,09,13,8.80
2010,03,25,09,14,8.80
2010,03,25,09,15,8.80
2010,03,25,09,16,8.80
2010,03,25,09,17,8.80
2010,03,25,09,18,8.80
2010,03,25,09,19,8.80
2010,03,25,09,20,8.80
2010,03,25,09,21,8.80
2010,03,25,09,22,8.80
2010,03,25,09,23,8.80
2010,03,25,09,24,8.80
2010,03,25,09,25,8.80
2010,03,25,09,26,8.80
2010,03,25,09,27,8.80
2010,03,25,09,28,8.80
2010,03,25,09,29,8.80
2010,03,25,09,30,8.90
2010,03,25,09,31,8.90
2010,03,25,09,32,8.90
2010,03,25,09,33,8.90
2010,03,25,09,34,8.90
2010,03,25,09,35,8.80
2010,03,25,09,36,8.80
2010,03,25,09,37,8.80
2010,03,25,09,38,8.80
2010,03,25,09,39,8.80
2010,03,25,09,40,8.80
2010,03,25,09,41,8.80
2010,03,25,09,42,8.80
2010,03,25,09,43,8.80
2010,03,25,09,44,8.80
2010,03,25,09,45,8.80
2010,03,25,09,46,8.80
2010,03,25,09,47,8.80
2010,03,25,09,48,8.80
2010,03,25,09,49,8.80
2010,03,25,09,50,8.80
2010,03,25,09,51,8.80
2010,03,25,09,52,8.90
2010,03,25,09,53,8.90
2010,03,25,09,54,8.80
2010,03,25,09,55,8.80
2010,03,25,09,56,8.80
2010,03,25,09,57,8.80
2010,03,25,09,58,8.70
2010,03,25,09,59,8.70
2010,03,25,10,00,8.70
2010,03,25,10,01,8.70
2010,03,25,10,02,8.70
2010,03,25,10,03,8.70
2010,03,25,10,04,8.70
2010,03,25,10,05,8.70
2010,03,25,10,06,8.70
2010,03,25,10,07,8.70
2010,03,25,10,08,8.60
2010,03,25,10,09,8.60
2010,03,25,10,10,8.60
2010,03,25,10,11,8.60
2010,03,25,10,12,8.60
2010,03,25,10,13,8.60
2010,03,25,10,14,8.60
2010,03,25,10,15,8.60
2010,03,25,10,16,8.60
2010,03,25,10,17,8.60
2010,03,25,10,18,8.60
2010,03,25,10,19,8.60
2010,03,25,10,20,8.60
2010,03,25,10,21,8.60
2010,03,25,10,22,8.70
2010,03,25,10,23,8.70
2010,03,25,10,24,8.70
2010,03,25,10,25,8.70
2010,03,25,10,26,8.70
2010,03,25,10,27,8.70
2010,03,25,10,28,8.70
2010,03,25,10,29,8.70
2010,03,25,10,30,8.70
2010,03,25,10,31,8.70
2010,03,25,10,32,8.70
2010,03,25,10,33,8.70
2010,03,25,10,34,8.80
2010,03,25,10,35,8.80
2010,03,25,10,36,8.80
2010,03,25,10,37,8.80
2010,03,25,10,38,8.80
2010,03,25,10,39,8.80
2010,03,25,10,40,8.90
2010,03,25,10,41,8.90
2010,03,25,10,42,8.90
2010,03,25,10,43,8.90
2010,03,25,10,44,8.90
2010,03,25,10,45,8.90
2010,03,25,10,46,8.90
2010,03,25,10,47,8.90
2010,03,25,10,48,8.90
2010,03,25,10,49,8.90
2010,03,25,10,50,9.00
2010,03,25,10,51,9.00
2010,03,25,10,52,9.00
2010,03,25,10,53,9.00
2010,03,25,10,54,9.10
2010,03,25,10,55,9.10
2010,03,25,10,56,9.10
2010,03,25,10,57,9.10
2010,03,25,10,58,9.10
2010,03,25,10,59,9.10
2010,03,25,11,00,9.10
2010,03,25,11,01,9.10
2010,03,25,11,02,9.10
2010,03,25,11,03,9.10
2010,03,25,11,04,9.10
2010,03,25,11,05,9.10
2010,03,25,11,06,9.10
2010,03,25,11,07,9.10
2010,03,25,11,08,9.10
2010,03,25,11,09,9.10
2010,03,25,11,10,9.10
2010,03,25,11,11,9.10
2010,03,25,11,12,9.10
2010,03,25,11,13,9.10
2010,03,25,11,14,9.10
2010,03,25,11,15,9.10
2010,03,25,11,16,9.00
2010,03,25,11,17,9.10
2010,03,25,11,18,9.00
2010,03,25,11,19,9.10
2010,03,25,11,20,9.10
2010,03,25,11,21,9.10
2010,03,25,11,22,9.10
2010,03,25,11,23,9.10
2010,03,25,11,24,9.10
2010,03,25,11,25,9.10
2010,03,25,11,26,9.00
2010,03,25,11,27,9.00
2010,03,25,11,28,9.00
2010,03,25,11,29,9.00
2010,03,25,11,30,9.00
2010,03,25,11,31,9.00
2010,03,25,11,32,9.00
2010,03,25,11,33,9.00
2010,03,25,11,34,9.00
2010,03,25,11,35,9.00
2010,03,25,11,36,9.00
2010,03,25,11,37,9.00
2010,03,25,11,38,9.10
2010,03,25,11,39,9.10
2010,03,25,11,40,9.10
2010,03,25,11,41,9.10
2010,03,25,11,42,9.10
2010,03,25,11,43,9.10
2010,03,25,11,44,9.10
2010,03,25,11,45,9.20
2010,03,25,11,46,9.20
2010,03,25,11,47,9.20
2010,03,25,11,48,9.20
2010,03,25,11,49,9.20
2010,03,25,11,50,9.20
2010,03,25,11,51,9.20
2010,03,25,11,52,9.30
2010,03,25,11,53,9.30
2010,03,25,11,54,9.30
2010,03,25,11,55,9.30
2010,03,25,11,56,9.30
2010,03,25,11,57,9.30
2010,03,25,11,58,9.30
2010,03,25,11,59,9.30
2010,03,25,12,00,9.30
2010,03,25,12,01,9.40
2010,03,25,12,02,9.40
2010,03,25,12,03,9.40
2010,03,25,12,04,9.40
2010,03,25,12,05,9.40
2010,03,25,12,06,9.40
2010,03,25,12,07,9.40
2010,03,25,12,08,9.40
2010,03,25,12,09,9.40
2010,03,25,12,10,9.40
2010,03,25,12,11,9.40
2010,03,25,12,12,9.40
2010,03,25,12,13,9.40
2010,03,25,12,14,9.50
2010,03,25,12,15,9.50
2010,03,25,12,16,9.50
2010,03,25,12,17,9.50
2010,03,25,12,18,9.60
2010,03,25,12,19,9.60
2010,03,25,12,20,9.60
2010,03,25,12,21,9.60
2010,03,25,12,22,9.60
2010,03,25,12,23,9.70
2010,03,25,12,24,9.70
2010,03,25,12,25,9.70
2010,03,25,12,26,9.70
2010,03,25,12,27,9.80
2010,03,25,12,28,9.80
2010,03,25,12,29,9.80
2010,03,25,12,30,9.80
2010,03,25,12,31,9.80
2010,03,25,12,32,9.90
2010,03,25,12,33,9.90
2010,03,25,12,34,9.90
2010,03,25,12,35,9.90
2010,03,25,12,36,9.90
2010,03,25,12,37,10.00
2010,03,25,12,38,10.00
2010,03,25,12,39,10.00
2010,03,25,12,40,10.00
2010,03,25,12,41,10.00
2010,03,25,12,42,10.00
2010,03,25,12,43,10.10
2010,03,25,12,44,10.10
2010,03,25,12,45,10.20
2010,03,25,12,46,10.20
2010,03,25,12,47,10.20
2010,03,25,12,48,10.20
2010,03,25,12,49,10.20
2010,03,25,12,50,10.20
2010,03,25,12,51,10.20
2010,03,25,12,52,10.20
2010,03,25,12,53,10.20
2010,03,25,12,54,10.30
2010,03,25,12,55,10.30
2010,03,25,12,56,10.30
2010,03,25,12,57,10.30
2010,03,25,12,58,10.30
2010,03,25,12,59,10.30
2010,03,25,13,00,10.30
2010,03,25,13,01,10.30
2010,03,25,13,02,10.30
2010,03,25,13,03,10.30
2010,03,25,13,04,10.40
2010,03,25,13,05,10.40
2010,03,25,13,06,10.50
2010,03,25,13,07,10.50
2010,03,25,13,08,10.60
2010,03,25,13,09,10.60
2010,03,25,13,10,10.60
2010,03,25,13,11,10.60
2010,03,25,13,12,10.60
2010,03,25,13,13,10.50
2010,03,25,13,14,10.50
2010,03,25,13,15,10.50
2010,03,25,13,16,10.50
2010,03,25,13,17,10.50
2010,03,25,13,18,10.50
2010,03,25,13,19,10.50
2010,03,25,13,20,10.50
2010,03,25,13,21,10.50
2010,03,25,13,22,10.50
2010,03,25,13,23,10.40
2010,03,25,13,24,10.40
2010,03,25,13,25,10.40
2010,03,25,13,26,10.40
2010,03,25,13,27,10.40
2010,03,25,13,28,10.40
2010,03,25,13,29,10.40
2010,03,25,13,30,10.40
2010,03,25,13,31,10.40
2010,03,25,13,32,10.40
2010,03,25,13,33,10.40
2010,03,25,13,34,10.40
2010,03,25,13,35,10.40
2010,03,25,13,36,10.40
2010,03,25,13,37,10.50
2010,03,25,13,38,10.50
2010,03,25,13,39,10.50
2010,03,25,13,40,10.50
2010,03,25,13,41,10.50
2010,03,25,13,42,10.40
2010,03,25,13,43,10.40
2010,03,25,13,44,10.30
2010,03,25,13,45,10.30
2010,03,25,13,46,10.30
2010,03,25,13,47,10.20
2010,03,25,13,48,10.20
2010,03,25,13,49,10.20
2010,03,25,13,50,10.20
2010,03,25,13,51,10.30
2010,03,25,13,52,10.30
2010,03,25,13,53,10.30
2010,03,25,13,54,10.40
2010,03,25,13,55,10.40
2010,03,25,13,56,10.50
2010,03,25,13,57,10.50
2010,03,25,13,58,10.60
2010,03,25,13,59,10.60
2010,03,25,14,00,10.70
2010,03,25,14,01,10.70
2010,03,25,14,02,10.70
2010,03,25,14,03,10.70
2010,03,25,14,04,10.70
2010,03,25,14,05,10.70
2010,03,25,14,06,10.70
2010,03,25,14,07,10.70
2010,03,25,14,08,10.80
2010,03,25,14,09,10.80
2010,03,25,14,10,10.80
2010,03,25,14,11,10.80
2010,03,25,14,12,10.80
2010,03,25,14,13,10.80
2010,03,25,14,14,10.80
2010,03,25,14,15,10.80
2010,03,25,14,16,10.90
2010,03,25,14,17,10.90
2010,03,25,14,18,10.90
2010,03,25,14,19,11.00
2010,03,25,14,20,11.00
2010,03,25,14,21,11.00
2010,03,25,14,22,11.10
2010,03,25,14,23,11.10
2010,03,25,14,24,11.10
2010,03,25,14,25,11.20
2010,03,25,14,26,11.20
2010,03,25,14,27,11.20
2010,03,25,14,28,11.30
2010,03,25,14,29,11.30
2010,03,25,14,30,11.30
2010,03,25,14,31,11.30
2010,03,25,14,32,11.30
2010,03,25,14,33,11.30
2010,03,25,14,34,11.40
2010,03,25,14,35,11.40
2010,03,25,14,36,11.50
2010,03,25,14,37,11.50
2010,03,25,14,38,11.60
2010,03,25,14,39,11.70
2010,03,25,14,40,11.70
2010,03,25,14,41,11.70
2010,03,25,14,42,11.80
2010,03,25,14,43,11.80
2010,03,25,14,44,11.80
2010,03,25,14,45,11.80
2010,03,25,14,46,11.90
2010,03,25,14,47,11.90
2010,03,25,14,48,11.90
2010,03,25,14,49,12.00
2010,03,25,14,50,12.10
2010,03,25,14,51,12.10
2010,03,25,14,52,12.10
2010,03,25,14,53,12.10
2010,03,25,14,54,12.10
2010,03,25,14,55,12.00
2010,03,25,14,56,12.00
2010,03,25,14,57,12.00
2010,03,25,14,58,12.00
2010,03,25,14,59,11.90
2010,03,25,15,00,11.90
2010,03,25,15,01,11.90
2010,03,25,15,02,11.80
2010,03,25,15,03,11.80
2010,03,25,15,04,11.80
2010,03,25,15,05,11.80
2010,03,25,15,06,11.80
2010,03,25,15,07,11.70
2010,03,25,15,08,11.70
2010,03,25,15,09,11.60
2010,03,25,15,10,11.60
2010,03,25,15,11,11.50
2010,03,25,15,12,11.40
2010,03,25,15,13,11.40
2010,03,25,15,14,11.40
2010,03,25,15,15,11.40
2010,03,25,15,16,11.30
2010,03,25,15,17,11.30
2010,03,25,15,18,11.30
2010,03,25,15,19,11.30
2010,03,25,15,20,11.40
2010,03,25,15,21,11.30
2010,03,25,15,22,11.30
2010,03,25,15,23,11.30
2010,03,25,15,24,11.20
2010,03,25,15,25,11.30
2010,03,25,15,26,11.20
2010,03,25,15,27,11.20
2010,03,25,15,28,11.20
2010,03,25,15,29,11.10
2010,03,25,15,30,11.10
2010,03,25,15,31,11.00
2010,03,25,15,32,11.00
2010,03,25,15,33,10.90
2010,03,25,15,34,10.90
2010,03,25,15,35,10.90
2010,03,25,15,36,10.90
2010,03,25,15,37,10.90
2010,03,25,15,38,10.90
2010,03,25,15,39,10.80
2010,03,25,15,40,10.80
2010,03,25,15,41,10.80
2010,03,25,15,42,10.70
2010,03,25,15,43,10.70
2010,03,25,15,44,10.70
2010,03,25,15,45,10.60
2010,03,25,15,46,10.60
2010,03,25,15,47,10.60
2010,03,25,15,48,10.50
2010,03,25,15,49,10.50
2010,03,25,15,50,10.50
2010,03,25,15,51,10.50
2010,03,25,15,52,10.40
2010,03,25,15,53,10.50
2010,03,25,15,54,10.50
2010,03,25,15,55,10.40
2010,03,25,15,56,10.50
2010,03,25,15,57,10.50
2010,03,25,15,58,10.50
2010,03,25,15,59,10.50
2010,03,25,16,00,10.50
2010,03,25,16,01,10.50
2010,03,25,16,02,10.50
2010,03,25,16,03,10.50
2010,03,25,16,04,10.40
2010,03,25,16,05,10.40
2010,03,25,16,06,10.40
2010,03,25,16,07,10.50
2010,03,25,16,08,10.50
2010,03,25,16,09,10.50
2010,03,25,16,10,10.50
2010,03,25,16,11,10.60
2010,03,25,16,12,10.60
2010,03,25,16,13,10.60
2010,03,25,16,14,10.60
2010,03,25,16,15,10.60
2010,03,25,16,16,10.60
2010,03,25,16,17,10.60
2010,03,25,16,18,10.60
2010,03,25,16,19,10.60
2010,03,25,16,20,10.60
2010,03,25,16,21,10.60
2010,03,25,16,22,10.60
2010,03,25,16,23,10.60
2010,03,25,16,24,10.60
2010,03,25,16,25,10.60
2010,03,25,16,26,10.60
2010,03,25,16,27,10.60
2010,03,25,16,28,10.60
2010,03,25,16,29,10.60
2010,03,25,16,30,10.50
2010,03,25,16,31,10.50
2010,03,25,16,32,10.50
2010,03,25,16,33,10.50
2010,03,25,16,34,10.50
2010,03,25,16,35,10.40
2010,03,25,16,36,10.40
2010,03,25,16,37,10.40
2010,03,25,16,38,10.40
2010,03,25,16,39,10.40
2010,03,25,16,40,10.40
2010,03,25,16,41,10.40
2010,03,25,16,42,10.40
2010,03,25,16,43,10.40
2010,03,25,16,44,10.40
2010,03,25,16,45,10.40
2010,03,25,16,46,10.50
2010,03,25,16,47,10.50
2010,03,25,16,48,10.50
2010,03,25,16,49,10.50
2010,03,25,16,50,10.50
2010,03,25,16,51,10.50
2010,03,25,16,52,10.50
2010,03,25,16,53,10.50
2010,03,25,16,54,10.50
2010,03,25,16,55,10.50
2010,03,25,16,56,10.50
2010,03,25,16,57,10.50
2010,03,25,16,58,10.60
2010,03,25,16,59,10.50
2010,03,25,17,00,10.60
2010,03,25,17,01,10.60
2010,03,25,17,02,10.60
2010,03,25,17,03,10.60
2010,03,25,17,04,10.60
2010,03,25,17,05,10.60
2010,03,25,17,06,10.60
2010,03,25,17,07,10.70
2010,03,25,17,08,10.70
2010,03,25,17,09,10.70
2010,03,25,17,10,10.70
2010,03,25,17,11,10.70
2010,03,25,17,12,10.70
2010,03,25,17,13,10.70
2010,03,25,17,14,10.70
2010,03,25,17,15,10.70
2010,03,25,17,16,10.70
2010,03,25,17,17,10.70
2010,03,25,17,18,10.70
2010,03,25,17,19,10.70
2010,03,25,17,20,10.80
2010,03,25,17,21,10.80
2010,03,25,17,22,10.80
2010,03,25,17,23,10.80
2010,03,25,17,24,10.80
2010,03,25,17,25,10.80
2010,03,25,17,26,10.80
2010,03,25,17,27,10.80
2010,03,25,17,28,10.80
2010,03,25,17,29,10.80
2010,03,25,17,30,10.80
2010,03,25,17,31,10.80
2010,03,25,17,32,10.80
2010,03,25,17,33,10.80
2010,03,25,17,34,10.80
2010,03,25,17,35,10.80
2010,03,25,17,36,10.80
2010,03,25,17,37,10.80
2010,03,25,17,38,10.80
2010,03,25,17,39,10.80
2010,03,25,17,40,10.70
2010,03,25,17,41,10.70
2010,03,25,17,42,10.70
2010,03,25,17,43,10.70
2010,03,25,17,44,10.60
2010,03,25,17,45,10.60
2010,03,25,17,46,10.60
2010,03,25,17,47,10.60
2010,03,25,17,48,10.60
2010,03,25,17,49,10.60
2010,03,25,17,50,10.60
2010,03,25,17,51,10.50
2010,03,25,17,52,10.50